[[{"header":{"parameterUnit":"m.s-1","parameterCategory":1,"la1":30.2991,"la2":30.254,"lo1":-89.0895,"lo2":-89.0444,"dy":0.0017,"dx":0.0017,"nx":28,"ny":28,"refTime":"2023-07-29T09:00:00:Z","depth":0,"parameterNumber":2,"parameterNumberName":"U-component_of_WINDS"},"data":[0,0,0,0,0,0,0,0,0,0,0,0,0,0,0,0,0,0,0,0,0,0,0,0,0,0,0,0,0,0,0,0,0,0,0,0,0,0,0,0,0,0,0,0,0,0,0,0,0,0,0,0,0,0,0,0,0,0,2.2784,2.2787,0,2.2984,2.2986,2.2989,2.3044,2.3043,2.3042,2.3041,2.3247,2.3253,2.326,0,0,0,0,0,0,0,0,0,0,0,0,0,2.2451,2.2457,2.2784,2.2787,2.2789,2.2984,2.2986,2.2989,2.3044,2.3043,2.3042,2.304,2.3245,2.3253,2.326,0,0,0,0,0,0,0,0,0,0,0,0,0,2.2618,2.2459,2.2784,2.284,2.2847,2.2983,2.2987,2.299,2.3045,2.3043,2.3041,2.304,2.3242,2.3252,2.3262,2.3356,0,0,2.3292,2.3296,0,0,0,0,0,0,0,0,2.2608,2.263,2.2829,2.2837,2.2845,2.2987,2.2945,2.3113,2.3045,2.297,2.3041,2.3039,2.3162,2.3178,2.322,2.3366,2.3375,2.3292,2.3298,2.3303,2.3305,0,0,0,0,0,0,0,2.2597,2.2622,2.2863,2.2832,2.2842,2.2856,2.2878,2.2977,2.3073,2.2976,2.2981,2.3004,2.3166,2.321,2.3225,2.3378,2.3292,2.3301,2.3307,2.3311,2.3611,2.3613,0,0,0,0,0,0,2.2576,2.2612,2.2857,2.2869,2.272,2.2863,2.2888,2.2943,2.3072,2.309,2.3005,2.3005,2.3194,2.3213,2.3232,2.3351,2.3302,2.3312,2.3317,2.3609,2.3611,2.3613,0,0,0,0,0,0,2.2568,2.2597,2.2849,2.2742,2.2775,2.2871,2.2933,2.2948,2.2992,2.3094,2.3111,2.3032,2.3194,2.3219,2.3325,2.3359,2.3316,2.3325,2.3606,2.3609,2.3612,2.3589,0,0,0,0,0,0,2.2558,2.2594,2.2631,2.2742,2.2781,2.2937,2.2935,2.2953,2.3009,2.3012,2.3124,2.3141,2.3194,2.331,2.3334,2.3372,2.3333,2.3604,2.3608,2.3611,2.3587,2.3591,2.3594,0,0,0,0,0,2.2546,2.2617,2.2632,2.2661,2.2828,2.2939,2.2961,2.302,2.3011,2.3049,2.3114,2.3137,2.3351,2.332,2.3348,2.3389,2.3602,2.3606,2.3611,2.3586,2.359,2.3594,0,0,0,0,0,0,2.2507,2.2632,2.2651,2.2759,2.2838,2.2948,2.2998,2.3024,2.3107,2.3106,2.3177,2.3202,2.3303,2.3357,2.332,2.3487,2.3477,2.3487,2.3448,2.3453,2.3457,2.3441,2.3341,0,0,0,0,0,2.251,2.259,2.2695,2.2781,2.2819,2.2901,2.2952,2.2991,2.3076,2.3109,2.3182,2.3264,2.335,2.3405,2.3489,2.3595,2.3621,2.3637,2.3641,2.3643,2.3651,2.3711,2.372,2.3629,2.3629,2.3629,0,0,2.2519,2.2598,2.2644,2.2775,2.284,2.2921,2.2929,2.3014,2.3075,2.3123,2.3227,2.3283,2.3379,2.3485,2.3536,2.3533,2.3682,2.3649,2.365,2.3658,2.3717,2.3725,2.3733,2.3632,2.3631,2.3631,0,0,2.2577,2.2644,2.2722,2.2788,2.2887,2.2941,2.2959,2.3066,2.3105,2.3211,2.3248,2.3321,2.3467,2.3534,2.3587,2.3668,2.3693,2.3694,2.3712,2.377,2.3777,2.3784,2.3812,2.3822,2.3702,2.3702,2.3702,0,2.2575,2.2698,2.2759,2.2843,2.2899,2.2945,2.3025,2.3086,2.3207,2.3245,2.3241,2.3424,2.3492,2.3615,2.3634,2.3676,2.3699,2.3681,2.3771,2.3778,2.3786,2.3814,2.3824,2.3701,2.3701,2.3702,2.3702,0,2.2691,2.2775,2.2827,2.2942,2.3005,2.3086,2.3159,2.3215,2.3248,2.3303,2.341,2.3493,2.3594,2.3627,2.366,2.3754,2.3749,2.3757,2.3748,2.3793,2.382,2.3832,2.3701,2.3701,2.3701,2.3701,0,0,2.2729,2.2877,2.2895,2.2947,2.306,2.3126,2.3209,2.3308,2.3354,2.3437,2.3508,2.363,2.3638,2.3698,2.374,2.379,2.3849,2.3792,2.3796,2.3799,2.3957,2.3949,2.3961,2.3866,2.3868,2.387,2.3948,0,2.2799,2.2949,2.3007,2.3129,2.3207,2.3252,2.3325,2.3401,2.3454,2.3529,2.3588,2.3673,2.3678,2.3714,2.3766,2.3831,2.3881,2.3826,2.3933,2.3936,2.3907,2.3975,2.3969,2.4038,2.396,2.3961,2.3963,0,2.2902,2.2985,2.3114,2.3217,2.3252,2.3316,2.3411,2.3481,2.3569,2.3605,2.3671,2.3709,2.3798,2.3784,2.3907,2.3868,2.3915,2.3954,2.3958,2.397,2.3952,2.3989,2.4062,2.4072,2.3981,2.3979,2.3978,0,2.2916,2.306,2.3156,2.3199,2.3321,2.3365,2.3418,2.3504,2.356,2.3643,2.368,2.3772,2.3823,2.3894,2.3956,2.394,2.4074,2.4065,2.4106,2.4104,2.4131,2.4129,2.4213,2.4162,2.4162,2.4162,2.4162,0,2.2989,2.3066,2.3163,2.3222,2.331,2.3376,2.3461,2.3517,2.3593,2.3664,2.3709,2.3775,2.3853,2.3929,2.3979,2.4073,2.4096,2.4127,2.4139,2.4122,2.4118,2.4154,2.4151,2.4165,2.4164,2.4164,2.4163,0,2.3019,2.3087,2.3195,2.3301,2.3329,2.339,2.3481,2.354,2.3595,2.3684,2.3708,2.3795,2.3886,2.3956,2.4075,2.4108,2.4208,2.4221,2.4178,2.4184,2.422,2.4216,2.433,2.4348,2.4286,2.4286,2.4287,0,2.306,2.3121,2.3234,2.3284,2.3336,2.3417,2.3474,2.354,2.3598,2.3702,2.3749,2.3843,2.3922,2.4066,2.414,2.4231,2.4246,2.428,2.426,2.4241,2.4246,2.4241,2.4248,2.4282,2.4283,2.4283,2.4283,0,2.3127,2.3158,2.3237,2.3329,2.3395,2.3471,2.3547,2.3586,2.3667,2.3729,2.3822,2.3883,2.4004,2.4097,2.4196,2.4251,2.428,2.4289,2.4303,2.4287,2.4259,2.4274,2.4184,2.4286,2.4285,2.4285,2.4285,2.4285,2.3164,2.322,2.3307,2.3395,2.3459,2.3529,2.359,2.3652,2.3731,2.3834,2.3869,2.3965,2.4052,2.4187,2.4243,2.4319,2.432,2.434,2.4346,2.435,2.4348,2.4246,2.4338,2.4338,2.4338,2.4338,2.4338,0,2.3232,2.3291,2.3371,2.3476,2.3544,2.3566,2.3651,2.3707,2.3791,2.3869,2.3946,2.4053,2.4143,2.4224,2.4318,2.4364,2.438,2.4386,2.4383,2.4395,2.4342,2.432,2.4372,2.4372,2.4372,2.4372,2.4372,2.4371,2.3276,2.3371,2.3412,2.3539,2.3598,2.3692,2.3739,2.3804,2.3866,2.3983,2.4058,2.411,2.4189,2.4289,2.4373,2.4395,2.4427,2.443,2.4455,2.4404,2.4399,2.4395,2.4375,2.4437,2.4437,2.4502,2.4502,2.4503]},{"header":{"parameterUnit":"m.s-1","parameterCategory":1,"la1":30.2991,"la2":30.254,"lo1":-89.0895,"lo2":-89.0444,"dy":0.0017,"dx":0.0017,"nx":28,"ny":28,"refTime":"2023-07-29T09:00:00:Z","depth":0,"parameterNumber":3,"parameterNumberName":"V-component_of_WINDS"},"data":[0,0,0,0,0,0,0,0,0,0,0,0,0,0,0,0,0,0,0,0,0,0,0,0,0,0,0,0,0,0,0,0,0,0,0,0,0,0,0,0,0,0,0,0,0,0,0,0,0,0,0,0,0,0,0,0,0,0,4.2241,4.224,0,4.2175,4.2174,4.2174,4.2093,4.2091,4.209,4.2089,4.2019,4.2019,4.2018,0,0,0,0,0,0,0,0,0,0,0,0,0,4.2294,4.2293,4.2241,4.224,4.2239,4.2175,4.2174,4.2173,4.2093,4.2091,4.209,4.2088,4.202,4.2019,4.2018,0,0,0,0,0,0,0,0,0,0,0,0,0,4.2254,4.2293,4.2241,4.2191,4.2186,4.2175,4.2174,4.2173,4.2093,4.2091,4.2089,4.2088,4.202,4.2019,4.2018,4.205,0,0,4.2015,4.2014,0,0,0,0,0,0,0,0,4.2256,4.2252,4.22,4.2195,4.2189,4.214,4.2167,4.2132,4.2094,4.2129,4.2089,4.2087,4.2061,4.2056,4.2048,4.2046,4.2043,4.2015,4.2014,4.2014,4.2013,0,0,0,0,0,0,0,4.2259,4.2254,4.2215,4.2199,4.2192,4.2171,4.2164,4.216,4.2106,4.2125,4.2119,4.2113,4.2058,4.2049,4.2046,4.2042,4.2015,4.2014,4.2013,4.2013,4.2061,4.2063,0,0,0,0,0,0,4.227,4.2257,4.2217,4.2213,4.2219,4.2172,4.2163,4.2158,4.2106,4.2096,4.2114,4.2109,4.2052,4.2047,4.2043,4.2076,4.2014,4.2013,4.2012,4.2059,4.2062,4.2064,0,0,0,0,0,0,4.2271,4.2267,4.2219,4.2233,4.2226,4.2173,4.2168,4.2157,4.2149,4.2098,4.2087,4.2116,4.205,4.2045,4.2048,4.2072,4.2012,4.2011,4.2057,4.206,4.2063,4.2143,0,0,0,0,0,0,4.2273,4.2268,4.228,4.2234,4.2225,4.2227,4.2169,4.2158,4.2148,4.214,4.2097,4.2087,4.2048,4.205,4.2047,4.207,4.2011,4.2055,4.2058,4.2062,4.2138,4.2148,4.2157,0,0,0,0,0,4.2275,4.2305,4.2281,4.2277,4.224,4.2229,4.2223,4.2179,4.215,4.2162,4.2128,4.2089,4.207,4.2051,4.2047,4.207,4.2053,4.2057,4.2062,4.2134,4.2146,4.2157,0,0,0,0,0,0,4.2355,4.2298,4.2271,4.2287,4.2264,4.2215,4.2228,4.2194,4.2177,4.217,4.2115,4.2105,4.2116,4.2093,4.2073,4.2097,4.2056,4.2059,4.2112,4.2123,4.2133,4.2138,4.201,0,0,0,0,0,4.2375,4.2371,4.2321,4.234,4.233,4.2282,4.2275,4.2242,4.2215,4.2204,4.2171,4.2146,4.2134,4.2127,4.2113,4.2134,4.2122,4.2147,4.2157,4.2165,4.2169,4.2176,4.2187,4.2078,4.2078,4.2078,0,0,4.2415,4.2383,4.2385,4.2356,4.2333,4.233,4.2273,4.2273,4.2269,4.2204,4.2206,4.218,4.2148,4.216,4.2163,4.2141,4.2196,4.217,4.2177,4.2176,4.2182,4.2192,4.2201,4.2081,4.208,4.208,0,0,4.2487,4.2463,4.2476,4.2454,4.2421,4.2389,4.2392,4.2348,4.2329,4.233,4.2281,4.2275,4.2257,4.2235,4.2222,4.2284,4.2246,4.2281,4.2331,4.2339,4.2347,4.2355,4.2376,4.2385,4.2285,4.2285,4.2285,0,4.2541,4.2535,4.2487,4.2489,4.2477,4.2418,4.243,4.2411,4.2375,4.2368,4.2344,4.2318,4.2292,4.2298,4.2313,4.2304,4.2305,4.2286,4.235,4.2357,4.2363,4.2383,4.2391,4.2289,4.2289,4.2288,4.2288,0,4.2602,4.2599,4.2613,4.258,4.257,4.2577,4.2529,4.2524,4.2492,4.2462,4.2462,4.2429,4.2407,4.2406,4.2374,4.2406,4.2393,4.2361,4.2318,4.2379,4.2396,4.2403,4.2296,4.2294,4.2293,4.2292,0,0,4.2723,4.2663,4.2669,4.2653,4.2612,4.2608,4.2612,4.2591,4.2587,4.2564,4.2565,4.255,4.2518,4.2503,4.2469,4.2476,4.2526,4.2442,4.244,4.2458,4.2558,4.2583,4.2593,4.2501,4.2502,4.2503,4.2561,0,4.2787,4.2791,4.2747,4.2763,4.2758,4.2702,4.2704,4.2679,4.265,4.2641,4.2608,4.2599,4.2559,4.2549,4.2554,4.2519,4.2545,4.2514,4.25,4.25,4.251,4.2602,4.2629,4.2685,4.2567,4.2568,4.2569,0,4.2862,4.2844,4.2859,4.2816,4.2813,4.2817,4.2793,4.2786,4.2755,4.2733,4.2716,4.2676,4.2675,4.2635,4.2631,4.2611,4.2602,4.2585,4.2586,4.2583,4.2539,4.2601,4.2702,4.271,4.258,4.2579,4.2578,0,4.2949,4.2927,4.2933,4.2922,4.2872,4.2876,4.2855,4.2822,4.2812,4.2791,4.2783,4.2763,4.2751,4.2735,4.269,4.2665,4.2692,4.2648,4.2673,4.2674,4.2681,4.2682,4.2782,4.2676,4.2676,4.2676,4.2676,0,4.3024,4.3036,4.2971,4.2975,4.2986,4.2935,4.2946,4.292,4.2891,4.2887,4.2837,4.2834,4.2775,4.2766,4.273,4.2732,4.2727,4.2709,4.2699,4.2714,4.2716,4.2707,4.2702,4.2678,4.2677,4.2677,4.2677,0,4.3123,4.308,4.3083,4.3036,4.3024,4.3034,4.2992,4.2993,4.2961,4.2957,4.2953,4.2902,4.2888,4.2842,4.2816,4.2792,4.2805,4.2787,4.2816,4.281,4.2837,4.2835,4.2935,4.2945,4.2834,4.2835,4.2836,0,4.3174,4.3182,4.3135,4.313,4.3111,4.3103,4.3093,4.3042,4.3033,4.2997,4.3002,4.2984,4.2967,4.2947,4.2907,4.2886,4.2867,4.2903,4.2864,4.2877,4.2867,4.2867,4.2867,4.2912,4.2914,4.2915,4.2916,0,4.327,4.3248,4.3235,4.3215,4.3204,4.3186,4.3164,4.3162,4.3105,4.3097,4.3082,4.3069,4.3043,4.3025,4.2998,4.2974,4.2936,4.2929,4.2933,4.2948,4.2964,4.2955,4.2839,4.2927,4.2926,4.2925,4.2924,4.2924,4.3346,4.335,4.3317,4.3304,4.3283,4.3263,4.3262,4.3229,4.3217,4.3192,4.3162,4.3151,4.3118,4.3077,4.3057,4.3046,4.3025,4.3032,4.3034,4.3036,4.3043,4.2966,4.3041,4.3041,4.304,4.304,4.304,0,4.3438,4.3415,4.3404,4.3375,4.3365,4.3329,4.3303,4.3296,4.3287,4.326,4.3245,4.3227,4.3209,4.3167,4.3145,4.3145,4.3126,4.314,4.314,4.3135,4.3063,4.3061,4.3156,4.3156,4.3156,4.3156,4.3156,4.3156,4.3486,4.349,4.3464,4.3457,4.3432,4.3422,4.341,4.3391,4.3369,4.3352,4.3338,4.3311,4.3277,4.3252,4.3233,4.3221,4.3215,4.3235,4.3218,4.3151,4.314,4.313,4.3128,4.3235,4.3235,4.329,4.3291,4.3291]}]]